TimeMST,TemperatureF,Dew PointF,Humidity,Sea Level PressureIn,VisibilityMPH,Wind Direction,Wind SpeedMPH,Gust SpeedMPH,PrecipitationIn,Events,Conditions,WindDirDegrees,DateUTC
12:53 AM,12.0,8.1,84,29.98,3.0,North,12.7,-,0.00,Snow,Light Snow,360,2012-12-25 07:53:00
1:06 AM,12.2,8.6,85,29.86,2.5,North,11.5,-,0.00,Snow,Light Snow,10,2012-12-25 08:06:00
1:22 AM,12.2,8.6,85,29.88,2.0,North,9.2,-,0.00,Snow,Light Snow,360,2012-12-25 08:22:00
1:53 AM,10.0,6.1,84,30.03,1.8,North,10.4,-,0.00,Snow,Light Snow,350,2012-12-25 08:53:00
2:01 AM,8.6,5.0,85,29.90,1.8,North,10.4,-,0.00,Snow,Light Snow,350,2012-12-25 09:01:00
2:11 AM,8.6,5.0,85,29.90,2.5,North,12.7,-,0.00,Snow,Light Snow,350,2012-12-25 09:11:00
2:22 AM,8.6,5.0,85,29.91,3.0,North,10.4,-,0.00,Snow,Light Snow,350,2012-12-25 09:22:00
2:34 AM,8.6,3.2,79,29.92,2.5,NNW,12.7,-,0.00,Snow,Light Snow,340,2012-12-25 09:34:00
2:53 AM,8.1,3.9,83,30.08,1.8,NNW,10.4,-,0.00,Snow,Light Snow,340,2012-12-25 09:53:00
3:53 AM,7.0,3.0,84,30.11,1.8,North,10.4,-,0.00,Snow,Light Snow,350,2012-12-25 10:53:00
4:01 AM,6.8,3.2,85,29.95,2.0,North,10.4,-,0.00,Snow,Light Snow,350,2012-12-25 11:01:00
4:09 AM,6.8,3.2,85,29.95,3.0,North,9.2,-,0.00,Snow,Light Snow,350,2012-12-25 11:09:00
4:32 AM,6.8,3.2,85,29.96,2.5,North,9.2,-,0.00,Snow,Light Snow,350,2012-12-25 11:32:00
4:48 AM,6.8,3.2,85,29.96,3.0,North,9.2,-,0.00,Snow,Light Snow,350,2012-12-25 11:48:00
4:53 AM,7.0,3.0,84,30.13,4.0,North,10.4,-,0.00,Snow,Light Snow,350,2012-12-25 11:53:00
5:10 AM,6.8,3.2,85,29.98,2.0,North,9.2,-,0.00,Snow,Light Snow,350,2012-12-25 12:10:00
5:20 AM,6.8,3.2,85,29.98,1.8,North,9.2,-,0.00,Snow,Light Snow,350,2012-12-25 12:20:00
5:38 AM,6.8,3.2,85,29.99,2.0,North,9.2,-,0.00,Snow,Light Snow,350,2012-12-25 12:38:00
5:53 AM,7.0,3.0,84,30.17,2.5,NNW,8.1,-,0.00,Snow,Light Snow,340,2012-12-25 12:53:00
6:00 AM,6.8,3.2,85,30.00,2.5,NNW,5.8,-,0.01,Snow,Light Snow,340,2012-12-25 13:00:00
6:21 AM,6.8,3.2,85,30.01,3.0,NNW,3.5,-,0.01,Snow,Light Snow,340,2012-12-25 13:21:00
6:53 AM,7.0,1.9,80,30.20,6.0,NW,3.5,-,0.01,,Haze,320,2012-12-25 13:53:00
7:53 AM,5.0,1.0,84,30.26,5.0,NNW,4.6,-,0.00,,Overcast,340,2012-12-25 14:53:00
8:53 AM,6.1,1.9,83,30.27,7.0,Calm,Calm,-,0.00,,Overcast,0,2012-12-25 15:53:00
9:39 AM,8.6,3.2,79,30.08,2.5,Calm,Calm,-,0.00,Snow,Light Snow,0,2012-12-25 16:39:00
9:53 AM,9.0,3.9,80,30.27,6.0,Calm,Calm,-,0.00,,Haze,0,2012-12-25 16:53:00
10:12 AM,8.6,3.2,79,30.08,9.0,Calm,Calm,-,N/A,,Scattered Clouds,0,2012-12-25 17:12:00
10:53 AM,10.0,3.9,76,30.28,10.0,Calm,Calm,-,N/A,,Clear,0,2012-12-25 17:53:00
11:53 AM,12.9,6.1,74,30.25,10.0,WSW,5.8,-,N/A,,Mostly Cloudy,240,2012-12-25 18:53:00
12:53 PM,12.9,7.0,77,30.24,10.0,SW,3.5,-,N/A,,Overcast,220,2012-12-25 19:53:00
1:53 PM,16.0,8.1,71,30.22,10.0,Calm,Calm,-,N/A,,Overcast,0,2012-12-25 20:53:00
2:53 PM,16.0,8.1,71,30.22,10.0,WSW,13.8,-,N/A,,Overcast,240,2012-12-25 21:53:00
3:09 PM,15.8,8.6,73,30.00,10.0,SW,13.8,-,N/A,,Scattered Clouds,230,2012-12-25 22:09:00
3:43 PM,14.0,6.8,73,30.00,10.0,WSW,9.2,-,N/A,,Mostly Cloudy,240,2012-12-25 22:43:00
3:53 PM,15.1,7.0,70,30.22,10.0,WSW,13.8,-,N/A,,Scattered Clouds,250,2012-12-25 22:53:00
4:53 PM,10.0,5.0,80,30.25,10.0,West,8.1,-,N/A,,Clear,260,2012-12-25 23:53:00
5:53 PM,9.0,3.9,80,30.26,10.0,Variable,6.9,-,N/A,,Clear,0,2012-12-26 00:53:00
6:53 PM,8.1,1.9,76,30.25,10.0,Calm,Calm,-,N/A,,Clear,0,2012-12-26 01:53:00
7:53 PM,10.9,5.0,77,30.24,10.0,SW,13.8,-,N/A,,Clear,220,2012-12-26 02:53:00
8:53 PM,6.1,1.0,80,30.24,10.0,South,6.9,-,N/A,,Clear,190,2012-12-26 03:53:00
9:53 PM,12.0,5.0,73,30.17,10.0,South,5.8,-,N/A,,Clear,170,2012-12-26 04:53:00
10:53 PM,10.0,3.0,73,30.16,10.0,Calm,Calm,-,N/A,,Clear,0,2012-12-26 05:53:00
11:53 PM,14.0,6.1,71,30.09,10.0,SW,11.5,-,N/A,,Clear,220,2012-12-26 06:53:00